Weather History for Reidsville, NC

Change the Weather History Date:

Saturday, November 10, 2012

  Actual Average (KGSO) Record (KGSO)
Temperature  
Mean Temperature 51 °F 52 °F  
Max Temperature 73 °F 63 °F 80 °F (1945)
Min Temperature 29 °F 41 °F 24 °F (1923)
Degree Days  
Heating Degree Days 14 13  
Month to date heating degree days 117  
Since 1 July heating degree days 350  
Cooling Degree Days 0 0  
Month to date cooling degree days 0  
Year to date cooling degree days 1480  
Growing Degree Days 1 (Base 50)    
Moisture  
Dew Point 34 °F    
Average Humidity 55    
Maximum Humidity 98    
Minimum Humidity 20    
Precipitation  
Precipitation 0.00 in 0.10 in 1.86 in (1987)
Month to date precipitation 1.07  
Year to date precipitation 37.18  
Sea Level Pressure  
Sea Level Pressure 30.32 in    
Wind  
Wind Speed 2 mph (SW)    
Max Wind Speed 7 mph    
Max Gust Speed -    
Visibility 10 miles    
Events      
T = Trace of Precipitation, MM = Missing Value Source: NWS Daily Summary

Daily Weather History Graph

Daily Weather History Graph

Search for Another Location

Airport:

Trip Planner

Search our weather history database for the weather conditions in past years. The results will help you decide how hot, cold, wet, or windy it might be!

Date:

Astronomy

Nov. 10, 2012 Rise Set
Actual Time 6:52 AM EST 5:14 PM EST
Civil Twilight 6:24 AM EST 5:41 PM EST
Nautical Twilight 5:54 AM EST 6:12 PM EST
Astronomical Twilight 5:23 AM EST 6:42 PM EST
Moon 3:01 AM EST (11/10) 2:55 PM EST (11/10)
Length of Visible Light 11h 16m
Length of Day
10h 22m
Waning Crescent, 14% of the Moon is Illuminated
Nov 10
Waning Crescent
Nov 13
New
Nov 20
First Quarter
Nov 28
Full
Dec 6
Last Quarter

Hourly Weather History & Observations

Time (EST) Temp. Windchill Dew Point Humidity Pressure Visibility Wind Dir Wind Speed Gust Speed Precip Events Conditions
5:15 AM 30.0 °F - 29.1 °F 96% 30.28 in 10.0 mi Calm Calm - N/A   Clear
5:35 AM 29.8 °F - 29.1 °F 97% 30.28 in 10.0 mi Calm Calm - N/A   Clear
5:55 AM 29.3 °F - 28.6 °F 97% 30.29 in 10.0 mi Calm Calm - N/A   Clear
6:15 AM 29.1 °F - 28.4 °F 97% 30.29 in 10.0 mi Calm Calm - N/A   Clear
7:35 AM 29.3 °F - 28.8 °F 98% 30.32 in 7.0 mi Calm Calm - N/A   Clear
7:55 AM 31.8 °F - 31.3 °F 98% 30.33 in 10.0 mi Calm Calm - N/A   Clear
8:15 AM 35.6 °F - 33.6 °F 92% 30.33 in 10.0 mi Calm Calm - N/A   Clear
8:35 AM 39.4 °F - 34.7 °F 83% 30.34 in 10.0 mi Calm Calm - N/A   Clear
8:55 AM 43.5 °F 40.1 °F 35.6 °F 74% 30.34 in 10.0 mi SW 5.8 mph - N/A   Clear
9:15 AM 47.3 °F - 36.5 °F 66% 30.35 in 10.0 mi SW 4.6 mph - N/A   Clear
9:35 AM 49.6 °F - 36.5 °F 61% 30.35 in 10.0 mi SW 5.8 mph - N/A   Clear
9:55 AM 51.4 °F - 36.7 °F 57% 30.35 in 10.0 mi SSW 3.5 mph - N/A   Clear
10:35 AM 58.6 °F - 35.6 °F 42% 30.34 in 10.0 mi SSW 3.5 mph - N/A   Clear
10:55 AM 61.5 °F - 34.9 °F 37% 30.34 in 10.0 mi Calm Calm - N/A   Clear
11:15 AM 63.1 °F - 34.2 °F 34% 30.33 in 10.0 mi Calm Calm - N/A   Clear
11:35 AM 65.3 °F - 34.5 °F 32% 30.33 in 10.0 mi SW 3.5 mph - N/A   Clear
11:55 AM 67.5 °F - 34.9 °F 30% 30.32 in 10.0 mi SSW 4.6 mph - N/A   Clear
12:15 PM 68.7 °F - 35.4 °F 29% 30.31 in 10.0 mi SSW 4.6 mph - N/A   Clear
12:35 PM 69.8 °F - 34.7 °F 27% 30.30 in 10.0 mi SSW 5.8 mph - N/A   Clear
12:55 PM 71.2 °F - 33.6 °F 25% 30.29 in 10.0 mi WSW 5.8 mph - N/A   Clear
1:15 PM 72.0 °F - 33.3 °F 24% 30.28 in 10.0 mi WSW 6.9 mph - N/A   Clear
1:35 PM 72.7 °F - 31.8 °F 22% 30.28 in 10.0 mi WSW 5.8 mph - N/A   Clear
1:55 PM 73.2 °F - 31.5 °F 22% 30.27 in 10.0 mi WSW 4.6 mph - N/A   Clear
2:15 PM 73.0 °F - 31.1 °F 21% 30.27 in 10.0 mi SSW 4.6 mph - N/A   Clear
2:35 PM 72.9 °F - 30.2 °F 21% 30.27 in 10.0 mi West 5.8 mph - N/A   Clear
2:55 PM 73.2 °F - 29.3 °F 20% 30.27 in 10.0 mi SW 4.6 mph - N/A   Clear
3:15 PM 72.9 °F - 28.8 °F 20% 30.27 in 10.0 mi SW 3.5 mph - N/A   Clear
3:35 PM 72.9 °F - 29.5 °F 20% 30.27 in 10.0 mi SW 3.5 mph - N/A   Clear
3:55 PM 72.5 °F - 29.3 °F 20% 30.28 in 10.0 mi SSW 6.9 mph - N/A   Clear
4:15 PM 71.8 °F - 28.9 °F 20% 30.28 in 10.0 mi Calm Calm - N/A   Clear
4:35 PM 70.7 °F - 30.7 °F 23% 30.29 in 10.0 mi Calm Calm - N/A   Clear
4:55 PM 67.5 °F - 33.3 °F 28% 30.29 in 10.0 mi Calm Calm - N/A   Clear
5:15 PM 61.3 °F - 36.7 °F 40% 30.30 in 10.0 mi Calm Calm - N/A   Clear
5:35 PM 57.2 °F - 36.0 °F 45% 30.30 in 10.0 mi Calm Calm - N/A   Clear
5:55 PM 54.1 °F - 35.8 °F 50% 30.31 in 10.0 mi Calm Calm - N/A   Clear
6:15 PM 52.0 °F - 35.8 °F 54% 30.31 in 10.0 mi Calm Calm - N/A   Clear
6:35 PM 51.1 °F - 35.8 °F 56% 30.32 in 10.0 mi Calm Calm - N/A   Clear
6:55 PM 49.6 °F - 35.4 °F 58% 30.32 in 10.0 mi Calm Calm - N/A   Clear
7:15 PM 48.7 °F - 35.8 °F 61% 30.33 in 10.0 mi Calm Calm - N/A   Clear
7:35 PM 47.1 °F - 35.8 °F 65% 30.33 in 10.0 mi Calm Calm - N/A   Clear
7:55 PM 47.8 °F - 35.6 °F 63% 30.33 in 10.0 mi Calm Calm - N/A   Clear
8:15 PM 47.3 °F - 35.8 °F 64% 30.34 in 10.0 mi Calm Calm - N/A   Clear
8:35 PM 46.6 °F - 35.6 °F 66% 30.34 in 10.0 mi Calm Calm - N/A   Clear
8:55 PM 45.9 °F - 36.0 °F 68% 30.35 in 10.0 mi Calm Calm - N/A   Clear
9:15 PM 45.0 °F - 35.8 °F 70% 30.36 in 10.0 mi Calm Calm - N/A   Clear
9:35 PM 44.6 °F - 36.0 °F 72% 30.36 in 10.0 mi Calm Calm - N/A   Clear
9:55 PM 43.5 °F - 36.0 °F 75% 30.36 in 10.0 mi Calm Calm - N/A   Clear
10:15 PM 42.8 °F - 35.8 °F 76% 30.37 in 10.0 mi Calm Calm - N/A   Clear
10:35 PM 41.4 °F - 35.8 °F 81% 30.36 in 10.0 mi Calm Calm - N/A   Clear
10:55 PM 40.6 °F - 36.0 °F 83% 30.37 in 10.0 mi Calm Calm - N/A   Clear
11:15 PM 40.5 °F - 35.4 °F 82% 30.37 in 10.0 mi Calm Calm - N/A   Clear
11:35 PM 40.3 °F - 35.6 °F 83% 30.37 in 10.0 mi Calm Calm - N/A   Clear
11:55 PM 39.6 °F - 35.6 °F 86% 30.37 in 10.0 mi Calm Calm - N/A   Clear